Weather History for Homer, AK

Change the Weather History Date:

Sunday, October 28, 2012

  Actual Average Record
Temperature  
Mean Temperature 30 °F -  
Max Temperature 42 °F 38 °F 57 °F (2013)
Min Temperature 19 °F 26 °F -3 °F (1971)
Degree Days  
Heating Degree Days 35    
Moisture  
Dew Point 17 °F    
Average Humidity 63    
Maximum Humidity 75    
Minimum Humidity 35    
Precipitation  
Precipitation 0.00 in - - ()
Sea Level Pressure  
Sea Level Pressure 29.99 in    
Wind  
Wind Speed 2 mph (NE)    
Max Wind Speed 5 mph    
Max Gust Speed -    
Visibility 10 miles    
Events      
Averages and records for this station are not official NWS values.
T = Trace of Precipitation, MM = Missing Value Source: NWS Daily Summary

Daily Weather History Graph

Daily Weather History Graph

Search for Another Location

Airport:

Trip Planner

Search our weather history database for the weather conditions in past years. The results will help you decide how hot, cold, wet, or windy it might be!

Date:

Astronomy

Oct. 28, 2012 Rise Set
Actual Time 9:18 AM AKDT 6:19 PM AKDT
Civil Twilight 8:34 AM AKDT 7:03 PM AKDT
Nautical Twilight 7:45 AM AKDT 7:52 PM AKDT
Astronomical Twilight 6:58 AM AKDT 8:39 PM AKDT
Moon 5:42 PM AKDT (10/28) 8:17 AM AKDT (10/28)
Length of Visible Light 10h 29m
Length of Day
9h 01m
Waxing Gibbous, 99% of the Moon is Illuminated
Oct 28
Waxing Gibbous
Oct 29
Full
Nov 6
Last Quarter
Nov 13
New
Nov 20
First Quarter

Hourly Weather History & Observations

Time (AKDT) Temp. Windchill Dew Point Humidity Pressure Visibility Wind Dir Wind Speed Gust Speed Precip Events Conditions
12:53 AM 23.0 °F - 15.1 °F 72% 30.01 in 10.0 mi Calm Calm - N/A   Clear
1:53 AM 21.9 °F 17.2 °F 15.1 °F 75% 30.01 in 10.0 mi ENE 3.5 mph - N/A   Clear
2:53 AM 24.1 °F 19.7 °F 15.1 °F 69% 30.00 in 10.0 mi ENE 3.5 mph - N/A   Clear
3:53 AM 21.9 °F - 14.0 °F 72% 30.00 in 10.0 mi Calm Calm - N/A   Clear
4:53 AM 21.0 °F - 14.0 °F 74% 29.99 in 10.0 mi Calm Calm - N/A   Clear
5:53 AM 19.9 °F - 12.9 °F 74% 29.98 in 10.0 mi Calm Calm - N/A   Clear
6:53 AM 19.9 °F - 12.9 °F 74% 29.98 in 10.0 mi Calm Calm - N/A   Clear
7:53 AM 19.9 °F - 12.9 °F 74% 29.98 in 10.0 mi Calm Calm - N/A   Clear
8:53 AM 19.9 °F 13.4 °F 12.9 °F 74% 29.99 in 10.0 mi NE 4.6 mph - N/A   Clear
9:53 AM 21.9 °F 17.2 °F 14.0 °F 72% 29.98 in 10.0 mi NE 3.5 mph - N/A   Clear
10:53 AM 28.9 °F 23.9 °F 18.0 °F 64% 29.99 in 10.0 mi NE 4.6 mph - N/A   Clear
11:53 AM 34.0 °F 31.0 °F 19.9 °F 56% 29.98 in 10.0 mi ENE 3.5 mph - N/A   Clear
12:53 PM 37.0 °F 33.3 °F 19.0 °F 48% 29.98 in 10.0 mi ENE 4.6 mph - N/A   Clear
1:53 PM 37.9 °F - 19.9 °F 48% 29.98 in 10.0 mi Calm Calm - N/A   Clear
2:53 PM 39.9 °F 37.8 °F 19.9 °F 45% 29.98 in 10.0 mi Variable 3.5 mph - N/A   Clear
3:53 PM 41.0 °F - 15.1 °F 35% 29.98 in 10.0 mi Calm Calm - N/A   Clear
4:53 PM 41.0 °F - 17.1 °F 38% 29.97 in 10.0 mi Calm Calm - N/A   Clear
5:53 PM 37.9 °F 35.5 °F 24.1 °F 57% 29.97 in 9.0 mi SW 3.5 mph - N/A   Clear
6:53 PM 30.9 °F 27.5 °F 19.9 °F 64% 29.98 in 10.0 mi NNE 3.5 mph - N/A   Clear
7:53 PM 28.9 °F - 18.0 °F 64% 29.99 in 10.0 mi Calm Calm - N/A   Clear
8:53 PM 30.0 °F - 17.1 °F 59% 29.99 in 10.0 mi Calm Calm - N/A   Clear
9:53 PM 27.0 °F - 18.0 °F 69% 30.00 in 10.0 mi Calm Calm - N/A   Clear
10:53 PM 27.0 °F - 19.0 °F 72% 30.01 in 10.0 mi Calm Calm - N/A   Clear
11:53 PM 25.0 °F 20.7 °F 18.0 °F 75% 30.01 in 10.0 mi NNE 3.5 mph - N/A   Clear